Location: Central Coast NSW, Australia
(33.2407°S, 151.4316°E)
Time: 17:35:05
(UTC+11:00)

Envisat - Pass Details

Date: 27 March 2019
Orbit: 764 x 766 km, 98.1° (Epoch: 21 October)

Event Time Altitude Azimuth Distance (km) Brightness Sun altitude
Rises 21:07:50 0° 182° (S) 3,264 6.5 -27.9°
Reaches altitude 10° 21:10:26 10° 193° (SSW) 2,330 5.8 -28.4°
Maximum altitude 21:14:44 28° 250° (WSW) 1,429 5.0 -29.3°
Drops below altitude 10° 21:19:00 10° 307° (NW) 2,305 5.8 -30.1°
Sets 21:21:35 0° 318° (NW) 3,222 6.5 -30.6°
